SWR320 LSZH-ESSA

Flight info

Callsign SWR320
Flight time N/A
Altitude 35000
Route DEGES Z1 ETAGO DCT TIKNI DCT ROBEL DCT KENIG DCT VIBIS DCT ADUKI Z400 ARGAD DCT OKAGA DCT VIBAR Z227 NILUG
Aircraft A320/M-SDE3FGHIRWY/LB1

Departure

Time 2026-04-26 14:56
Airport Zürich Airport (LSZH)

Arrival

Time N/A
Airport Stockholm-Arlanda Airport (ESSA)
Time Latitude Longitude Altitude Speed Heading
2026-04-26 14:29 47.45171 8.55805 1407 ft 0 kts 187°
2026-04-26 14:45 47.45185 8.55807 1413 ft 4 kts 182°
2026-04-26 14:46 47.45212 8.55807 1411 ft 4 kts 186°
2026-04-26 14:46 47.45232 8.55817 1412 ft 4 kts 214°
2026-04-26 14:46 47.45250 8.55843 1411 ft 4 kts 249°
2026-04-26 14:46 47.45254 8.55877 1412 ft 1 kts 276°
2026-04-26 14:47 47.45254 8.55878 1412 ft 0 kts 276°
2026-04-26 14:48 47.45254 8.55877 1412 ft 0 kts 276°
2026-04-26 14:48 47.45254 8.55869 1412 ft 1 kts 276°
2026-04-26 14:48 47.45256 8.55853 1413 ft 2 kts 277°
2026-04-26 14:49 47.45258 8.55829 1410 ft 3 kts 277°
2026-04-26 14:49 47.45261 8.55799 1410 ft 3 kts 277°
2026-04-26 14:49 47.45264 8.55748 1406 ft 10 kts 274°
2026-04-26 14:49 47.45277 8.55599 1406 ft 19 kts 279°
2026-04-26 14:50 47.45401 8.55491 1408 ft 25 kts 330°
2026-04-26 14:50 47.45574 8.55305 1401 ft 36 kts 321°
2026-04-26 14:50 47.45724 8.55152 1395 ft 0 kts 332°
2026-04-26 14:50 47.45726 8.55151 1395 ft 2 kts 332°
2026-04-26 14:51 47.45743 8.55137 1403 ft 3 kts 331°
2026-04-26 14:51 47.45774 8.55112 1396 ft 13 kts 331°
2026-04-26 14:51 47.45884 8.55026 1396 ft 19 kts 333°
2026-04-26 14:51 47.46007 8.54946 1387 ft 21 kts 336°
2026-04-26 14:52 47.46145 8.54850 1386 ft 22 kts 329°
2026-04-26 14:52 47.46289 8.54756 1384 ft 23 kts 334°
2026-04-26 14:52 47.46442 8.54649 1383 ft 24 kts 341°
2026-04-26 14:52 47.46593 8.54549 1386 ft 24 kts 335°
2026-04-26 14:53 47.46752 8.54442 1382 ft 26 kts 338°
2026-04-26 14:53 47.46922 8.54334 1381 ft 27 kts 335°
2026-04-26 14:53 47.47092 8.54217 1383 ft 27 kts 335°
2026-04-26 14:53 47.47260 8.54101 1384 ft 27 kts 335°
2026-04-26 14:54 47.47426 8.53986 1395 ft 26 kts 335°
2026-04-26 14:54 47.47570 8.53882 1399 ft 18 kts 324°
2026-04-26 14:54 47.47595 8.53725 1404 ft 15 kts 251°
2026-04-26 14:54 47.47524 8.53653 1400 ft 12 kts 185°
2026-04-26 14:55 47.47442 8.53686 1400 ft 0 kts 156°
2026-04-26 14:55 47.47443 8.53686 1400 ft 0 kts 156°
2026-04-26 14:55 47.47374 8.53731 1387 ft 42 kts 155°
2026-04-26 14:56 47.46899 8.54061 1381 ft 108 kts 154°
2026-04-26 14:56 47.46049 8.54647 1386 ft 158 kts 155°
2026-04-26 14:56 47.44970 8.55381 1775 ft 170 kts 153°
2026-04-26 14:56 47.43880 8.56108 2445 ft 175 kts 152°
2026-04-26 14:57 47.43026 8.57244 3190 ft 162 kts 106°
2026-04-26 14:57 47.43113 8.58879 3514 ft 175 kts 58°
2026-04-26 14:57 47.43898 8.60380 3765 ft 194 kts 52°
2026-04-26 14:57 47.44748 8.62072 4034 ft 216 kts 55°
2026-04-26 14:58 47.45614 8.63903 4824 ft 216 kts 57°
2026-04-26 14:58 47.46171 8.65966 5464 ft 225 kts 82°
2026-04-26 14:58 47.46287 8.68406 5780 ft 249 kts 87°
2026-04-26 14:58 47.46368 8.71078 6241 ft 267 kts 88°
2026-04-26 14:59 47.46445 8.73827 6922 ft 274 kts 88°
2026-04-26 14:59 47.46529 8.76680 7640 ft 280 kts 88°
2026-04-26 14:59 47.46623 8.79588 8370 ft 285 kts 88°
2026-04-26 14:59 47.46673 8.81546 8857 ft 289 kts 92°
2026-04-26 15:00 47.46255 8.85509 9803 ft 296 kts 103°
2026-04-26 15:00 47.45814 8.88516 10442 ft 304 kts 103°
2026-04-26 15:00 47.45354 8.91648 10628 ft 327 kts 103°
2026-04-26 15:00 47.44858 8.95060 10797 ft 350 kts 103°
2026-04-26 15:01 47.44339 8.98680 10998 ft 369 kts 103°
2026-04-26 15:01 47.43805 9.02443 11555 ft 375 kts 102°
2026-04-26 15:01 47.43264 9.06253 12172 ft 380 kts 102°
2026-04-26 15:01 47.42722 9.10042 12755 ft 386 kts 103°
2026-04-26 15:02 47.42200 9.13957 13410 ft 389 kts 98°
2026-04-26 15:02 47.42084 9.17955 14036 ft 393 kts 86°
2026-04-26 15:02 47.42499 9.21948 14538 ft 397 kts 75°
2026-04-26 15:02 47.43459 9.25796 15136 ft 398 kts 63°
2026-04-26 15:03 47.44810 9.29368 15723 ft 399 kts 59°
2026-04-26 15:03 47.46188 9.32910 16265 ft 402 kts 58°
2026-04-26 15:03 47.47793 9.36311 16776 ft 403 kts 47°
2026-04-26 15:03 47.49801 9.39221 17289 ft 403 kts 36°
2026-04-26 15:04 47.52130 9.41532 17805 ft 403 kts 25°
2026-04-26 15:04 47.54713 9.43169 18332 ft 402 kts 15°
2026-04-26 15:04 47.57356 9.44432 18797 ft 404 kts 12°
2026-04-26 15:04 47.60120 9.45185 19212 ft 403 kts
2026-04-26 15:05 47.62930 9.45363 19620 ft 405 kts 359°
2026-04-26 15:05 47.63883 9.45406 19754 ft 406 kts 359°
2026-04-26 15:05 47.68619 9.45646 20427 ft 412 kts 359°
2026-04-26 15:05 47.71462 9.45803 20816 ft 415 kts 359°
2026-04-26 15:06 47.74357 9.45964 21230 ft 418 kts 359°
2026-04-26 15:06 47.77269 9.46127 21618 ft 421 kts 359°
2026-04-26 15:06 47.80205 9.46292 22012 ft 423 kts 359°
2026-04-26 15:06 47.83163 9.46388 22402 ft 426 kts 358°
2026-04-26 15:07 47.89154 9.46355 23133 ft 432 kts 356°
2026-04-26 15:07 47.92174 9.46300 23493 ft 435 kts 356°
2026-04-26 15:07 47.95215 9.46252 23830 ft 438 kts 356°
2026-04-26 15:08 47.98268 9.46220 24129 ft 440 kts 356°
2026-04-26 15:08 48.01342 9.46205 24451 ft 443 kts 356°
2026-04-26 15:08 48.04433 9.46202 24766 ft 445 kts 356°
2026-04-26 15:08 48.07545 9.46202 25081 ft 447 kts 356°
2026-04-26 15:09 48.10615 9.46202 25390 ft 449 kts 356°
2026-04-26 15:09 48.13785 9.46197 25691 ft 451 kts 356°
2026-04-26 15:09 48.16930 9.46187 25976 ft 453 kts 356°
2026-04-26 15:09 48.20089 9.46179 26259 ft 455 kts 356°
2026-04-26 15:10 48.23224 9.46182 26530 ft 456 kts 356°
2026-04-26 15:10 48.25336 9.46188 26713 ft 458 kts 356°
2026-04-26 15:10 48.29602 9.46197 27135 ft 459 kts 357°
2026-04-26 15:10 48.32798 9.46204 27425 ft 460 kts 357°
2026-04-26 15:11 48.36008 9.46212 27690 ft 461 kts 357°
2026-04-26 15:11 48.39231 9.46216 27948 ft 463 kts 357°
2026-04-26 15:11 48.42416 9.46216 28223 ft 464 kts 357°
2026-04-26 15:11 48.45641 9.46220 28603 ft 463 kts 357°
2026-04-26 15:12 48.48866 9.46226 28970 ft 462 kts 357°
2026-04-26 15:12 48.52077 9.46227 29344 ft 461 kts 357°
2026-04-26 15:12 48.55282 9.46219 29705 ft 460 kts 356°
2026-04-26 15:12 48.58478 9.46192 30069 ft 459 kts 356°
2026-04-26 15:13 48.61685 9.46151 30430 ft 458 kts 356°
2026-04-26 15:13 48.64872 9.46105 30746 ft 457 kts 356°
2026-04-26 15:13 48.68053 9.46061 31066 ft 456 kts 356°
2026-04-26 15:13 48.71190 9.46024 31392 ft 455 kts 357°
2026-04-26 15:14 48.74355 9.46372 31679 ft 457 kts
2026-04-26 15:14 48.77506 9.47125 31995 ft 456 kts
2026-04-26 15:14 48.80634 9.47872 32310 ft 455 kts
2026-04-26 15:14 48.83765 9.48617 32631 ft 454 kts
2026-04-26 15:15 48.85834 9.49111 32831 ft 454 kts
2026-04-26 15:15 48.88945 9.49854 33155 ft 452 kts
2026-04-26 15:15 48.92043 9.50592 33468 ft 451 kts
2026-04-26 15:15 48.95163 9.51339 33790 ft 450 kts
2026-04-26 15:16 48.98252 9.52083 34113 ft 449 kts
2026-04-26 15:16 49.01336 9.52823 34400 ft 448 kts
2026-04-26 15:16 49.04426 9.53564 34671 ft 447 kts
2026-04-26 15:16 49.07498 9.54304 34922 ft 447 kts
2026-04-26 15:17 49.10550 9.55039 35147 ft 446 kts
2026-04-26 15:17 49.12617 9.55537 35215 ft 447 kts
2026-04-26 15:17 49.19783 9.57269 35242 ft 448 kts
2026-04-26 15:18 49.25921 9.58739 35237 ft 448 kts
2026-04-26 15:18 49.32076 9.60232 35245 ft 448 kts
2026-04-26 15:19 49.38236 9.61742 35245 ft 447 kts
2026-04-26 15:19 49.44389 9.63254 35245 ft 447 kts
2026-04-26 15:20 49.50557 9.64756 35245 ft 447 kts
2026-04-26 15:20 49.56661 9.66245 35261 ft 447 kts
2026-04-26 15:21 49.62815 9.67769 35260 ft 447 kts
2026-04-26 15:21 49.68959 9.69288 35265 ft 446 kts
2026-04-26 15:22 49.75101 9.70802 35264 ft 446 kts
2026-04-26 15:22 49.81242 9.72314 35270 ft 446 kts
2026-04-26 15:23 49.87335 9.73830 35268 ft 446 kts
2026-04-26 15:23 49.93461 9.75363 35265 ft 446 kts
2026-04-26 15:24 49.99584 9.76893 35265 ft 446 kts
2026-04-26 15:24 50.05720 9.78425 35275 ft 445 kts
2026-04-26 15:25 50.10817 9.79703 35274 ft 445 kts
2026-04-26 15:25 50.17938 9.81505 35269 ft 445 kts
2026-04-26 15:26 50.24069 9.83047 35280 ft 445 kts
2026-04-26 15:26 50.30193 9.84596 35281 ft 445 kts
2026-04-26 15:27 50.36294 9.86146 35279 ft 445 kts
2026-04-26 15:27 50.42207 9.89174 35276 ft 452 kts 25°
2026-04-26 15:28 50.47454 9.94700 35288 ft 455 kts 33°
2026-04-26 15:28 50.52549 10.00525 35284 ft 455 kts 33°
2026-04-26 15:29 50.57644 10.06354 35287 ft 455 kts 33°
2026-04-26 15:30 50.67869 10.18102 35289 ft 455 kts 33°
2026-04-26 15:30 50.72993 10.24023 35288 ft 455 kts 33°
2026-04-26 15:31 50.80655 10.32911 35290 ft 455 kts 33°
2026-04-26 15:32 50.87459 10.40834 35304 ft 456 kts 33°
2026-04-26 15:32 50.93416 10.47718 35295 ft 455 kts 33°
2026-04-26 15:33 50.98600 10.53544 35296 ft 455 kts 32°
2026-04-26 15:33 51.03743 10.59323 35295 ft 455 kts 32°
2026-04-26 15:34 51.08914 10.65171 35312 ft 456 kts 32°
2026-04-26 15:34 51.14080 10.71049 35314 ft 455 kts 33°
2026-04-26 15:35 51.19219 10.76936 35305 ft 455 kts 33°
2026-04-26 15:35 51.24366 10.82854 35303 ft 455 kts 33°
2026-04-26 15:36 51.29471 10.88728 35302 ft 455 kts 33°
2026-04-26 15:36 51.34628 10.94653 35292 ft 455 kts 32°
2026-04-26 15:37 51.39742 11.00539 35284 ft 455 kts 33°
2026-04-26 15:37 51.44881 11.06502 35284 ft 456 kts 33°
2026-04-26 15:38 51.50010 11.12466 35295 ft 456 kts 33°
2026-04-26 15:38 51.55154 11.18465 35297 ft 457 kts 32°
2026-04-26 15:39 51.60307 11.24505 35295 ft 458 kts 32°
2026-04-26 15:39 51.64871 11.28677 35298 ft 453 kts 21°
2026-04-26 15:40 51.71507 11.33744 35297 ft 453 kts 21°
2026-04-26 15:40 51.77221 11.38149 35311 ft 454 kts 21°
2026-04-26 15:41 51.82931 11.42573 35307 ft 454 kts 21°
2026-04-26 15:41 51.88607 11.46968 35304 ft 454 kts 21°
2026-04-26 15:42 51.94323 11.51407 35301 ft 454 kts 21°
2026-04-26 15:42 52.00032 11.55864 35310 ft 455 kts 21°
2026-04-26 15:43 52.05736 11.60335 35312 ft 455 kts 21°
2026-04-26 15:44 52.14315 11.67049 35313 ft 456 kts 21°
2026-04-26 15:44 52.22848 11.73768 35330 ft 456 kts 21°
2026-04-26 15:45 52.31423 11.80551 35323 ft 456 kts 21°
2026-04-26 15:46 52.39979 11.87350 35316 ft 456 kts 21°
2026-04-26 15:46 52.44723 11.91136 35327 ft 456 kts 21°
2026-04-26 15:47 52.54255 11.98768 35321 ft 456 kts 21°
2026-04-26 15:48 52.59937 12.03326 35316 ft 456 kts 21°
2026-04-26 15:48 52.65642 12.07920 35338 ft 456 kts 21°
2026-04-26 15:49 52.71343 12.12519 35327 ft 456 kts 21°
2026-04-26 15:49 52.77037 12.17129 35330 ft 455 kts 20°
2026-04-26 15:50 52.82730 12.21756 35327 ft 455 kts 20°
2026-04-26 15:50 52.88382 12.26369 35315 ft 455 kts 20°
2026-04-26 15:51 52.94060 12.31023 35312 ft 455 kts 21°
2026-04-26 15:51 52.99718 12.35612 35311 ft 454 kts 19°
2026-04-26 15:52 53.05502 12.39869 35316 ft 453 kts 17°
2026-04-26 15:52 53.11278 12.43963 35325 ft 453 kts 17°
2026-04-26 15:53 53.17061 12.48155 35320 ft 453 kts 18°
2026-04-26 15:53 53.22841 12.52440 35310 ft 453 kts 18°
2026-04-26 15:54 53.28576 12.56711 35313 ft 453 kts 18°
2026-04-26 15:54 53.34354 12.61017 35333 ft 453 kts 18°
2026-04-26 15:55 53.40113 12.65308 35335 ft 453 kts 18°
2026-04-26 15:55 53.45830 12.69584 35332 ft 452 kts 18°
2026-04-26 15:56 53.51603 12.73903 35329 ft 452 kts 18°
2026-04-26 15:56 53.57346 12.78217 35349 ft 452 kts 18°
2026-04-26 15:57 53.63087 12.82567 35339 ft 451 kts 18°
2026-04-26 15:57 53.68779 12.86882 35334 ft 451 kts 18°
2026-04-26 15:58 53.74513 12.91226 35326 ft 450 kts 18°
2026-04-26 15:58 53.80201 12.95538 35353 ft 450 kts 18°
2026-04-26 15:59 53.85910 12.99896 35345 ft 450 kts 18°
2026-04-26 15:59 53.91615 13.04272 35337 ft 449 kts 18°
2026-04-26 16:00 53.96356 13.07920 35333 ft 449 kts 18°
2026-04-26 16:00 54.02968 13.13014 35331 ft 449 kts 18°
2026-04-26 16:01 54.07739 13.16703 35352 ft 448 kts 18°
2026-04-26 16:01 54.13381 13.21069 35342 ft 448 kts 18°
2026-04-26 16:02 54.19052 13.25478 35335 ft 447 kts 18°
2026-04-26 16:02 54.24724 13.29889 35329 ft 447 kts 18°
2026-04-26 16:03 54.30387 13.34319 35343 ft 447 kts 18°
2026-04-26 16:03 54.36044 13.38723 35337 ft 446 kts 18°
2026-04-26 16:04 54.41707 13.42954 35325 ft 445 kts 17°
2026-04-26 16:04 54.47409 13.47183 35321 ft 445 kts 17°
2026-04-26 16:05 54.53053 13.51345 35353 ft 443 kts 15°
2026-04-26 16:05 54.58817 13.55095 35333 ft 441 kts 13°
2026-04-26 16:06 54.64597 13.58675 35325 ft 440 kts 13°
2026-04-26 16:06 54.70280 13.62307 35332 ft 439 kts 14°
2026-04-26 16:07 54.76041 13.66079 35354 ft 439 kts 14°
2026-04-26 16:07 54.81734 13.69828 35320 ft 436 kts 14°
2026-04-26 16:08 54.87404 13.73557 35315 ft 435 kts 14°
2026-04-26 16:08 54.93028 13.77589 35307 ft 442 kts 21°
2026-04-26 16:09 54.98444 13.82556 35305 ft 442 kts 20°
2026-04-26 16:09 55.03890 13.87536 35326 ft 441 kts 20°
2026-04-26 16:10 55.09316 13.92513 35319 ft 440 kts 20°
2026-04-26 16:10 55.14750 13.97523 35296 ft 440 kts 20°
2026-04-26 16:11 55.20131 14.02502 35283 ft 440 kts 20°
2026-04-26 16:11 55.25543 14.07521 35278 ft 440 kts 21°
2026-04-26 16:12 55.30965 14.12580 35266 ft 440 kts 21°
2026-04-26 16:12 55.39044 14.20133 35263 ft 440 kts 21°
2026-04-26 16:13 55.44449 14.25200 35265 ft 440 kts 21°
2026-04-26 16:13 55.49845 14.30291 35281 ft 440 kts 21°
2026-04-26 16:14 55.55204 14.35356 35281 ft 439 kts 21°
2026-04-26 16:15 55.63293 14.43013 35270 ft 439 kts 21°
2026-04-26 16:15 55.68655 14.48116 35262 ft 438 kts 21°
2026-04-26 16:16 55.76698 14.55786 35280 ft 438 kts 21°
2026-04-26 16:16 55.82076 14.60938 35271 ft 438 kts 21°
2026-04-26 16:17 55.87405 14.66083 35259 ft 438 kts 21°
2026-04-26 16:17 55.92768 14.71263 35249 ft 437 kts 21°
2026-04-26 16:18 56.00765 14.78990 35266 ft 437 kts 21°
2026-04-26 16:19 56.08779 14.86787 35251 ft 437 kts 21°
2026-04-26 16:20 56.16787 14.94634 35237 ft 436 kts 21°
2026-04-26 16:20 56.24753 15.02453 35256 ft 435 kts 21°
2026-04-26 16:21 56.30058 15.07685 35221 ft 433 kts 21°
2026-04-26 16:21 56.35328 15.12923 35212 ft 431 kts 21°
2026-04-26 16:22 56.40556 15.18118 35207 ft 431 kts 21°
2026-04-26 16:22 56.45822 15.23346 35221 ft 431 kts 21°
2026-04-26 16:23 56.51084 15.28589 35224 ft 430 kts 21°
2026-04-26 16:23 56.56285 15.33809 35213 ft 430 kts 22°
2026-04-26 16:24 56.61528 15.39099 35213 ft 430 kts 22°
2026-04-26 16:24 56.66767 15.44384 35202 ft 430 kts 22°
2026-04-26 16:25 56.71965 15.49653 35236 ft 430 kts 22°
2026-04-26 16:25 56.77190 15.54961 35227 ft 429 kts 22°
2026-04-26 16:26 56.81532 15.59382 35218 ft 429 kts 22°
2026-04-26 16:26 56.87590 15.65553 35206 ft 428 kts 22°
2026-04-26 16:27 56.92799 15.70893 35200 ft 428 kts 22°
2026-04-26 16:27 56.97988 15.76246 35223 ft 428 kts 22°
2026-04-26 16:28 57.03181 15.81605 35220 ft 427 kts 22°
2026-04-26 16:28 57.08336 15.86931 35208 ft 427 kts 22°
2026-04-26 16:29 57.13512 15.92304 35209 ft 426 kts 22°
2026-04-26 16:29 57.18651 15.97670 35236 ft 426 kts 22°
2026-04-26 16:30 57.23801 16.03054 35196 ft 424 kts 22°
2026-04-26 16:30 57.28912 16.08408 35194 ft 424 kts 22°
2026-04-26 16:31 57.34040 16.13804 35190 ft 424 kts 22°
2026-04-26 16:31 57.39169 16.19227 35189 ft 424 kts 22°
2026-04-26 16:32 57.43426 16.23733 35228 ft 424 kts 22°
2026-04-26 16:32 57.49368 16.30039 35190 ft 422 kts 22°
2026-04-26 16:33 57.54468 16.35466 35183 ft 422 kts 22°
2026-04-26 16:33 57.59540 16.40938 35181 ft 423 kts 23°
2026-04-26 16:34 57.64562 16.46731 35176 ft 424 kts 24°
2026-04-26 16:34 57.69541 16.52645 35174 ft 424 kts 24°
2026-04-26 16:35 57.74533 16.58541 35200 ft 423 kts 24°
2026-04-26 16:35 57.79518 16.64380 35188 ft 422 kts 24°
2026-04-26 16:36 57.84462 16.70175 35181 ft 421 kts 24°
2026-04-26 16:36 57.89419 16.76024 35172 ft 421 kts 24°
2026-04-26 16:37 57.94371 16.81884 35190 ft 420 kts 24°
2026-04-26 16:37 57.96836 16.84806 34989 ft 419 kts 24°
2026-04-26 16:37 57.98490 16.86768 34823 ft 418 kts 24°
2026-04-26 16:38 58.01761 16.90664 34507 ft 417 kts 24°
2026-04-26 16:38 58.04219 16.93602 34266 ft 417 kts 23°
2026-04-26 16:38 58.06640 16.96501 34007 ft 416 kts 23°
2026-04-26 16:38 58.09085 16.99431 33726 ft 416 kts 23°
2026-04-26 16:39 58.11533 17.02366 33468 ft 416 kts 23°
2026-04-26 16:39 58.13954 17.05270 33191 ft 416 kts 23°
2026-04-26 16:39 58.16391 17.08201 32914 ft 416 kts 23°
2026-04-26 16:39 58.18796 17.11107 32693 ft 407 kts 23°
2026-04-26 16:40 58.21112 17.13933 32417 ft 386 kts 23°
2026-04-26 16:40 58.23337 17.16663 32146 ft 370 kts 22°
2026-04-26 16:40 58.25464 17.19259 31876 ft 359 kts 22°
2026-04-26 16:40 58.27553 17.21785 31534 ft 350 kts 22°
2026-04-26 16:41 58.29573 17.24217 31096 ft 346 kts 21°
2026-04-26 16:41 58.31609 17.26672 30733 ft 341 kts 21°
2026-04-26 16:41 58.33599 17.29078 30331 ft 337 kts 21°
2026-04-26 16:41 58.35556 17.31454 29893 ft 334 kts 21°
2026-04-26 16:42 58.37523 17.33848 29407 ft 332 kts 21°
2026-04-26 16:42 58.39463 17.36212 28919 ft 329 kts 21°
2026-04-26 16:42 58.41389 17.38560 28441 ft 327 kts 21°
2026-04-26 16:42 58.43290 17.40885 28005 ft 325 kts 22°
2026-04-26 16:43 58.45176 17.43219 27539 ft 325 kts 24°
2026-04-26 16:43 58.46860 17.46240 27077 ft 344 kts 44°
2026-04-26 16:43 58.47914 17.50492 26645 ft 367 kts 65°
2026-04-26 16:43 58.48255 17.55439 26191 ft 379 kts 76°
2026-04-26 16:44 58.48396 17.60493 25749 ft 379 kts 77°
2026-04-26 16:44 58.48519 17.65512 25320 ft 377 kts 77°
2026-04-26 16:44 58.48638 17.70502 24930 ft 375 kts 77°
2026-04-26 16:44 58.49000 17.75325 24573 ft 356 kts 61°
2026-04-26 16:45 58.49971 17.79441 24197 ft 332 kts 44°
2026-04-26 16:45 58.51420 17.82678 23796 ft 312 kts 29°
2026-04-26 16:45 58.53170 17.84921 23341 ft 295 kts 15°
2026-04-26 16:45 58.55061 17.86175 22884 ft 281 kts
2026-04-26 16:46 58.56974 17.86548 22450 ft 273 kts 355°
2026-04-26 16:46 58.58854 17.86686 22020 ft 272 kts 356°
2026-04-26 16:46 58.60740 17.86836 21623 ft 270 kts 356°
2026-04-26 16:46 58.62614 17.86988 21233 ft 268 kts 356°
2026-04-26 16:47 58.64471 17.87136 20897 ft 266 kts 356°
2026-04-26 16:47 58.66312 17.87284 20575 ft 263 kts 356°
2026-04-26 16:47 58.68134 17.87432 20222 ft 260 kts 356°
2026-04-26 16:47 58.69919 17.87573 19821 ft 259 kts 356°
2026-04-26 16:48 58.71725 17.87709 19399 ft 260 kts 356°
2026-04-26 16:48 58.73535 17.87845 19038 ft 259 kts 356°
2026-04-26 16:48 58.75345 17.87986 18708 ft 258 kts 357°
2026-04-26 16:48 58.77118 17.88123 18298 ft 259 kts 357°
2026-04-26 16:49 58.78934 17.88262 17739 ft 263 kts 358°
2026-04-26 16:49 58.80770 17.88686 17186 ft 265 kts
2026-04-26 16:49 58.82548 17.89596 16640 ft 264 kts 12°
2026-04-26 16:49 58.84246 17.90963 16112 ft 264 kts 18°
2026-04-26 16:50 58.85341 17.92000 15772 ft 266 kts 18°
2026-04-26 16:50 58.87555 17.94086 15082 ft 263 kts 19°
2026-04-26 16:50 58.89184 17.95626 14584 ft 259 kts 19°
2026-04-26 16:50 58.90794 17.97148 14091 ft 256 kts 19°
2026-04-26 16:51 58.92399 17.98666 13591 ft 258 kts 19°
2026-04-26 16:51 58.93472 17.99677 13221 ft 262 kts 19°
2026-04-26 16:51 58.95121 18.01236 12659 ft 262 kts 20°
2026-04-26 16:51 58.96751 18.02789 12117 ft 258 kts 20°
2026-04-26 16:52 58.98369 18.04329 11580 ft 262 kts 20°
2026-04-26 16:52 58.99461 18.05364 11233 ft 266 kts 20°
2026-04-26 16:52 59.01667 18.07464 10532 ft 261 kts 20°
2026-04-26 16:52 59.03282 18.09005 10020 ft 257 kts 20°
2026-04-26 16:53 59.04883 18.10534 9464 ft 255 kts 21°
2026-04-26 16:53 59.06461 18.12042 8921 ft 257 kts 21°
2026-04-26 16:53 59.08071 18.13571 8371 ft 256 kts 20°
2026-04-26 16:53 59.09717 18.14750 7832 ft 247 kts 11°
2026-04-26 16:54 59.11383 18.15366 7306 ft 240 kts
2026-04-26 16:54 59.13041 18.15557 7085 ft 238 kts
2026-04-26 16:54 59.14694 18.15741 7083 ft 239 kts
2026-04-26 16:54 59.16332 18.15936 7079 ft 228 kts
2026-04-26 16:55 59.17876 18.16133 7083 ft 219 kts
2026-04-26 16:55 59.19392 18.16324 7096 ft 218 kts
2026-04-26 16:55 59.20889 18.16506 7087 ft 218 kts
2026-04-26 16:55 59.22409 18.16687 7078 ft 218 kts
2026-04-26 16:56 59.25444 18.17043 7084 ft 218 kts
2026-04-26 16:56 59.26961 18.17221 7085 ft 218 kts
2026-04-26 16:56 59.28458 18.17378 7085 ft 217 kts 356°
2026-04-26 16:57 59.29893 18.16590 7087 ft 213 kts 325°
2026-04-26 16:57 59.30806 18.14371 7086 ft 217 kts 293°
2026-04-26 16:57 59.30525 18.08363 7038 ft 233 kts 258°
2026-04-26 16:58 59.30047 18.05315 6687 ft 232 kts 258°
2026-04-26 16:58 59.29729 18.03342 6466 ft 226 kts 258°
2026-04-26 16:58 59.29889 17.96787 5649 ft 205 kts 296°
2026-04-26 16:59 59.30450 17.94250 5301 ft 204 kts 297°